[[{"header":{"parameterUnit":"m.s-1","parameterCategory":1,"la1":30.2991,"la2":30.254,"lo1":-89.0895,"lo2":-89.0444,"dy":0.0017,"dx":0.0017,"nx":28,"ny":28,"refTime":"2023-08-20T09:00:00:Z","depth":0,"parameterNumber":2,"parameterNumberName":"U-component_of_WINDS"},"data":[0,0,0,0,0,0,0,0,0,0,0,0,0,0,0,0,0,0,0,0,0,0,0,0,0,0,0,0,0,0,0,0,0,0,0,0,0,0,0,0,0,0,0,0,0,0,0,0,0,0,0,0,0,0,0,0,0,0,-1.9147,-1.9147,0,-1.9163,-1.9163,-1.9163,-1.9123,-1.9122,-1.9121,-1.9119,-1.9142,-1.9144,-1.9146,0,0,0,0,0,0,0,0,0,0,0,0,0,-1.9086,-1.9087,-1.9147,-1.9147,-1.9147,-1.9163,-1.9163,-1.9163,-1.9123,-1.9122,-1.912,-1.9119,-1.9141,-1.9144,-1.9146,0,0,0,0,0,0,0,0,0,0,0,0,0,-1.9108,-1.9088,-1.9147,-1.9129,-1.9128,-1.9163,-1.9163,-1.9163,-1.9124,-1.9122,-1.912,-1.9118,-1.9141,-1.9143,-1.9146,-1.9201,0,0,-1.9154,-1.9156,0,0,0,0,0,0,0,0,-1.9107,-1.9111,-1.9131,-1.913,-1.9129,-1.9139,-1.915,-1.9176,-1.9124,-1.9125,-1.9119,-1.9117,-1.9143,-1.9145,-1.9153,-1.9202,-1.9203,-1.9155,-1.9156,-1.9157,-1.9158,0,0,0,0,0,0,0,-1.9106,-1.911,-1.9153,-1.9132,-1.913,-1.9122,-1.9123,-1.9155,-1.9145,-1.9125,-1.9122,-1.9124,-1.9142,-1.915,-1.9153,-1.9204,-1.9155,-1.9157,-1.9159,-1.916,-1.9299,-1.9301,0,0,0,0,0,0,-1.9106,-1.9109,-1.9153,-1.9154,-1.9113,-1.9124,-1.9125,-1.9138,-1.9144,-1.9144,-1.9126,-1.9122,-1.9147,-1.915,-1.9154,-1.9218,-1.9157,-1.916,-1.9161,-1.9297,-1.9299,-1.9302,0,0,0,0,0,0,-1.9105,-1.911,-1.9152,-1.913,-1.9135,-1.9127,-1.9141,-1.9139,-1.9147,-1.9145,-1.9144,-1.9136,-1.9145,-1.915,-1.9189,-1.9219,-1.9161,-1.9164,-1.9294,-1.9298,-1.93,-1.9349,0,0,0,0,0,0,-1.9103,-1.911,-1.913,-1.9131,-1.9136,-1.9186,-1.9143,-1.9141,-1.9151,-1.9147,-1.9154,-1.9154,-1.9144,-1.9185,-1.9192,-1.9221,-1.9166,-1.9292,-1.9296,-1.93,-1.9344,-1.9353,-1.936,0,0,0,0,0,-1.9101,-1.9144,-1.9131,-1.9136,-1.9161,-1.9188,-1.9191,-1.9178,-1.9154,-1.9174,-1.9173,-1.9153,-1.9214,-1.919,-1.9197,-1.9228,-1.929,-1.9295,-1.9299,-1.9341,-1.9351,-1.936,0,0,0,0,0,0,-1.9149,-1.9144,-1.9129,-1.9174,-1.9181,-1.9181,-1.9206,-1.9189,-1.9205,-1.92,-1.9185,-1.9187,-1.9229,-1.9232,-1.9205,-1.9281,-1.9248,-1.9255,-1.9277,-1.9287,-1.9295,-1.9294,-1.9168,0,0,0,0,0,-1.9164,-1.9185,-1.918,-1.922,-1.9224,-1.9215,-1.9226,-1.9215,-1.9223,-1.9226,-1.9227,-1.9237,-1.9258,-1.9273,-1.9293,-1.9344,-1.9346,-1.9369,-1.9377,-1.9383,-1.9389,-1.9417,-1.9427,-1.9317,-1.9317,-1.9317,0,0,-1.9197,-1.9197,-1.9211,-1.9229,-1.9234,-1.9257,-1.9218,-1.9244,-1.9261,-1.9231,-1.9267,-1.9268,-1.9279,-1.9324,-1.9344,-1.9328,-1.942,-1.9389,-1.9395,-1.9397,-1.9423,-1.9433,-1.9442,-1.932,-1.932,-1.9319,0,0,-1.9268,-1.927,-1.9303,-1.9307,-1.9313,-1.9307,-1.9315,-1.9316,-1.9315,-1.9351,-1.9328,-1.935,-1.9387,-1.9394,-1.9403,-1.9476,-1.9459,-1.9483,-1.9525,-1.9552,-1.9561,-1.9568,-1.9595,-1.9604,-1.9489,-1.9489,-1.9489,0,-1.9308,-1.934,-1.9322,-1.9349,-1.9358,-1.9329,-1.9363,-1.9369,-1.9383,-1.939,-1.9371,-1.9416,-1.9421,-1.9467,-1.9485,-1.9493,-1.9502,-1.9483,-1.9561,-1.9568,-1.9575,-1.96,-1.961,-1.9492,-1.9492,-1.9491,-1.9491,0,-1.939,-1.9412,-1.9438,-1.9449,-1.9461,-1.9492,-1.948,-1.9494,-1.9482,-1.9477,-1.9514,-1.9519,-1.9538,-1.9548,-1.9538,-1.9594,-1.9583,-1.9563,-1.953,-1.9589,-1.9612,-1.9621,-1.9496,-1.9495,-1.9494,-1.9493,0,0,-1.9493,-1.9491,-1.9501,-1.9506,-1.951,-1.9528,-1.9557,-1.9574,-1.9587,-1.9597,-1.9622,-1.9653,-1.9633,-1.9643,-1.9633,-1.9657,-1.9714,-1.9633,-1.9633,-1.9648,-1.9776,-1.9792,-1.9803,-1.9702,-1.9704,-1.9705,-1.9775,0,-1.9562,-1.9611,-1.9595,-1.9645,-1.9665,-1.9637,-1.9663,-1.9669,-1.9666,-1.9684,-1.9681,-1.9703,-1.9676,-1.9682,-1.9704,-1.9702,-1.9739,-1.9697,-1.9727,-1.9728,-1.9725,-1.9815,-1.9832,-1.9898,-1.9784,-1.9786,-1.9787,0,-1.9651,-1.9662,-1.9713,-1.9712,-1.972,-1.9744,-1.9757,-1.9775,-1.9781,-1.9777,-1.9788,-1.9772,-1.9802,-1.9768,-1.981,-1.9782,-1.9793,-1.9794,-1.9796,-1.9799,-1.9761,-1.9821,-1.9919,-1.9929,-1.9801,-1.98,-1.9799,0,-1.9721,-1.9748,-1.9782,-1.9787,-1.9787,-1.9804,-1.9805,-1.981,-1.982,-1.9833,-1.984,-1.9857,-1.9867,-1.9881,-1.9871,-1.9847,-1.9915,-1.988,-1.9913,-1.9914,-1.993,-1.9929,-2.0031,-1.9936,-1.9936,-1.9936,-1.9936,0,-1.9801,-1.9833,-1.9813,-1.9834,-1.987,-1.9852,-1.9888,-1.9887,-1.989,-1.9912,-1.9889,-1.991,-1.9895,-1.9915,-1.9908,-1.9944,-1.9949,-1.9947,-1.9945,-1.9949,-1.9949,-1.9957,-1.9952,-1.9939,-1.9938,-1.9937,-1.9937,0,-1.9885,-1.9873,-1.9908,-1.9904,-1.9904,-1.9931,-1.9929,-1.9949,-1.9943,-1.997,-1.9975,-1.9967,-1.9989,-1.998,-2.0005,-2.0,-2.0046,-2.0038,-2.0043,-2.0041,-2.0075,-2.0072,-2.0186,-2.0201,-2.0096,-2.0097,-2.0098,0,-1.9937,-1.9961,-1.9959,-1.9971,-1.9973,-1.9992,-2.0002,-1.9986,-1.9997,-2.0006,-2.0025,-2.0045,-2.006,-2.0097,-2.0094,-2.0113,-2.0105,-2.0144,-2.0108,-2.0111,-2.0106,-2.0105,-2.0107,-2.0151,-2.0152,-2.0153,-2.0154,0,-2.003,-2.0023,-2.0037,-2.005,-2.0062,-2.0072,-2.0079,-2.0091,-2.0074,-2.0089,-2.011,-2.0121,-2.0145,-2.0165,-2.0181,-2.0184,-2.0167,-2.0165,-2.0174,-2.0179,-2.0181,-2.0181,-2.0063,-2.0163,-2.0162,-2.0161,-2.0161,-2.0161,-2.01,-2.012,-2.0121,-2.0138,-2.0142,-2.0149,-2.0168,-2.0163,-2.018,-2.0196,-2.0186,-2.021,-2.0217,-2.0236,-2.0241,-2.0262,-2.0247,-2.026,-2.0263,-2.0266,-2.0271,-2.0177,-2.0265,-2.0264,-2.0264,-2.0264,-2.0264,0,-2.0193,-2.0192,-2.0207,-2.0218,-2.0231,-2.0211,-2.0219,-2.0232,-2.0253,-2.0259,-2.0273,-2.0298,-2.0317,-2.0315,-2.0333,-2.035,-2.0343,-2.0355,-2.0354,-2.0356,-2.0283,-2.0274,-2.0361,-2.0361,-2.0361,-2.0361,-2.0361,-2.0361,-2.0242,-2.0274,-2.0267,-2.03,-2.03,-2.0322,-2.0328,-2.0335,-2.034,-2.0367,-2.0382,-2.038,-2.0383,-2.0401,-2.0418,-2.0417,-2.0425,-2.0441,-2.0438,-2.037,-2.0361,-2.0352,-2.0343,-2.0443,-2.0443,-2.0508,-2.0509,-2.0509]},{"header":{"parameterUnit":"m.s-1","parameterCategory":1,"la1":30.2991,"la2":30.254,"lo1":-89.0895,"lo2":-89.0444,"dy":0.0017,"dx":0.0017,"nx":28,"ny":28,"refTime":"2023-08-20T09:00:00:Z","depth":0,"parameterNumber":3,"parameterNumberName":"V-component_of_WINDS"},"data":[0,0,0,0,0,0,0,0,0,0,0,0,0,0,0,0,0,0,0,0,0,0,0,0,0,0,0,0,0,0,0,0,0,0,0,0,0,0,0,0,0,0,0,0,0,0,0,0,0,0,0,0,0,0,0,0,0,0,1.3188,1.3187,0,1.3146,1.3145,1.3145,1.3184,1.3186,1.3187,1.3189,1.3136,1.3133,1.313,0,0,0,0,0,0,0,0,0,0,0,0,0,1.3294,1.3292,1.3188,1.3187,1.3187,1.3146,1.3145,1.3144,1.3184,1.3186,1.3188,1.3189,1.3137,1.3133,1.313,0,0,0,0,0,0,0,0,0,0,0,0,0,1.3249,1.3291,1.3188,1.3202,1.3202,1.3146,1.3145,1.3144,1.3183,1.3186,1.3188,1.319,1.3138,1.3133,1.3129,1.3054,0,0,1.3116,1.3114,0,0,0,0,0,0,0,0,1.3252,1.3245,1.32,1.32,1.3201,1.3173,1.3163,1.3114,1.3183,1.319,1.3189,1.3192,1.3145,1.3141,1.3127,1.3051,1.3049,1.3115,1.3113,1.3111,1.311,0,0,0,0,0,0,0,1.3255,1.3247,1.3171,1.3199,1.32,1.3207,1.3203,1.3154,1.3154,1.319,1.3193,1.3188,1.3146,1.3131,1.3126,1.3048,1.3116,1.3112,1.3109,1.3107,1.2909,1.2906,0,0,0,0,0,0,1.3258,1.3249,1.3172,1.3169,1.3233,1.3203,1.3199,1.3179,1.3155,1.3154,1.3186,1.319,1.3137,1.3131,1.3124,1.3035,1.3111,1.3107,1.3104,1.2912,1.2908,1.2906,0,0,0,0,0,0,1.326,1.325,1.3174,1.321,1.3201,1.3199,1.3176,1.3177,1.3162,1.3152,1.3151,1.3171,1.3139,1.313,1.3072,1.3033,1.3105,1.3101,1.2915,1.2911,1.2907,1.2854,0,0,0,0,0,0,1.3263,1.3251,1.3224,1.321,1.3199,1.3124,1.3174,1.3175,1.3156,1.3161,1.3138,1.3136,1.314,1.3078,1.3067,1.3028,1.3097,1.2918,1.2913,1.2908,1.2859,1.2849,1.284,0,0,0,0,0,1.3266,1.3208,1.3222,1.3213,1.3166,1.3122,1.3116,1.3124,1.3153,1.3124,1.3118,1.3137,1.304,1.3072,1.306,1.3019,1.292,1.2914,1.2909,1.2864,1.2851,1.284,0,0,0,0,0,0,1.3214,1.3207,1.3222,1.3158,1.3141,1.3129,1.3093,1.311,1.3082,1.3087,1.3096,1.309,1.3029,1.3018,1.3054,1.2945,1.2984,1.2976,1.2954,1.2942,1.2933,1.2935,1.3094,0,0,0,0,0,1.3196,1.3164,1.3158,1.3102,1.3093,1.3095,1.3076,1.3085,1.3065,1.3057,1.3046,1.3024,1.2989,1.2965,1.2932,1.2859,1.2854,1.2825,1.2815,1.2808,1.2799,1.276,1.2747,1.2886,1.2886,1.2886,0,0,1.3156,1.3148,1.3127,1.3092,1.3079,1.3043,1.3088,1.3048,1.302,1.305,1.2995,1.2986,1.2962,1.2897,1.2867,1.2886,1.276,1.28,1.2794,1.279,1.2752,1.2739,1.2727,1.2882,1.2883,1.2883,0,0,1.3066,1.3058,1.3011,1.2999,1.2981,1.2983,1.2971,1.2957,1.2954,1.29,1.2921,1.2888,1.2827,1.2809,1.2792,1.2698,1.2714,1.2687,1.2635,1.2597,1.2586,1.2576,1.2541,1.2529,1.2679,1.2679,1.2679,0,1.3018,1.2968,1.2983,1.2943,1.2926,1.2956,1.2907,1.2893,1.2863,1.285,1.2873,1.2798,1.2784,1.2714,1.2692,1.2678,1.2663,1.2688,1.2587,1.2577,1.2568,1.2535,1.2522,1.2676,1.2676,1.2676,1.2677,0,1.291,1.2875,1.2838,1.2814,1.2793,1.2748,1.2754,1.2731,1.2742,1.2741,1.2685,1.267,1.2635,1.2619,1.2628,1.2551,1.2563,1.2586,1.2625,1.2551,1.2521,1.2508,1.2671,1.2672,1.2673,1.2674,0,0,1.2783,1.277,1.2756,1.2746,1.2729,1.2701,1.2657,1.2626,1.2606,1.2585,1.2547,1.2496,1.2518,1.2499,1.2506,1.2473,1.2398,1.25,1.2499,1.248,1.2312,1.2293,1.2279,1.241,1.2408,1.2406,1.2313,0,1.2692,1.2619,1.2633,1.2561,1.2528,1.2557,1.2518,1.2503,1.2501,1.2471,1.2467,1.2431,1.2464,1.2452,1.2421,1.2414,1.2364,1.2421,1.2372,1.237,1.2376,1.2263,1.2243,1.2156,1.2302,1.2299,1.2298,0,1.2575,1.2554,1.248,1.2471,1.2457,1.2423,1.2396,1.2368,1.235,1.2351,1.2332,1.2346,1.23,1.2342,1.2277,1.2316,1.2297,1.2291,1.2288,1.2282,1.2328,1.2252,1.2128,1.2115,1.2279,1.2281,1.2282,0,1.2489,1.2442,1.2392,1.2382,1.237,1.2345,1.2338,1.2324,1.2305,1.228,1.2268,1.2237,1.222,1.2195,1.22,1.223,1.2134,1.2176,1.2131,1.2131,1.2108,1.2109,1.1978,1.2098,1.2098,1.2099,1.2099,0,1.2385,1.2338,1.2354,1.2322,1.2271,1.2286,1.2233,1.2229,1.2217,1.2183,1.2206,1.2173,1.2183,1.215,1.2153,1.2099,1.2091,1.2089,1.209,1.2086,1.2086,1.2072,1.2078,1.2095,1.2096,1.2097,1.2097,0,1.2279,1.2288,1.2235,1.2229,1.2227,1.2188,1.2182,1.2152,1.2153,1.2111,1.2102,1.2102,1.2066,1.2069,1.2026,1.2028,1.1961,1.197,1.1968,1.1969,1.1924,1.1928,1.1778,1.1758,1.1893,1.1891,1.189,0,1.2211,1.2177,1.2168,1.215,1.2142,1.2111,1.2093,1.2107,1.2086,1.2065,1.2037,1.2003,1.1977,1.1916,1.1911,1.1879,1.1886,1.1836,1.1881,1.1878,1.1884,1.1885,1.1881,1.1826,1.1824,1.1823,1.1822,0,1.209,1.2097,1.2072,1.2048,1.2027,1.2008,1.1991,1.1974,1.1986,1.1961,1.1926,1.1906,1.1865,1.183,1.18,1.179,1.1807,1.1809,1.1796,1.1791,1.1791,1.1789,1.1942,1.1811,1.1812,1.1813,1.1814,1.1814,1.2,1.1971,1.1961,1.1933,1.1922,1.1907,1.1878,1.1878,1.185,1.182,1.1829,1.1788,1.1772,1.1734,1.1722,1.1688,1.1706,1.1688,1.1684,1.1679,1.1673,1.1798,1.1683,1.1683,1.1684,1.1684,1.1684,0,1.1879,1.1875,1.1849,1.1827,1.1804,1.1827,1.1809,1.1788,1.1753,1.1738,1.1713,1.1672,1.1639,1.1633,1.1601,1.1576,1.1583,1.1567,1.1568,1.1565,1.1659,1.1673,1.1562,1.1562,1.1562,1.1562,1.1562,1.1562,1.1814,1.1766,1.1771,1.1718,1.1714,1.1677,1.1665,1.165,1.1639,1.1593,1.1568,1.1565,1.1553,1.1521,1.1491,1.149,1.1476,1.1457,1.1458,1.1546,1.1558,1.157,1.1583,1.1454,1.1454,1.1367,1.1366,1.1365]}]]